DECAYED

STARLINK-2020, 47642 (Decayed)

Orbit data source: Space-Track

STARLINK-2020, 47642 was a payload satellite owned by SpaceX/Seattle (US) in LEO that was launched on Tue, 16 Feb 2021 UTC via an FALCON 9 launch vehicle from the Air Force Eastern Test Range (AFETR). Payload-class satellites include a variety of spacecraft equipped with specific instruments for various scientific and technological missions. These include communications satellites like Starlink; space stations such as the ISS; scientific satellites like the Hubble; Earth observation satellites from companies like Planet Labs, Umbra, and HawkEye 360; GPS; miniature CubeSats for education and research; and military/defense satellites.

Not visible in the next 10 days
Identifier
47642, 2021-012Y
Orbit
Decayed
Country
Flag of USUS
Related business
Manufacturer
SpaceX/Seattle
Mission
Decayed Commercial Communications
Bus & Motor
STARLINK, Unknown motor
Mass
260 kg wet, ~248 kg dry
Launch date (UTC)
2021-02-16 (5 years ago)
Launch vehicle
FALCON 9
Launch site
Air Force Eastern Test Range (AFETR)
Object type
Payload
Rocket body
Debris
Shape & HBR
Box + 1 Pan, 10.1 m
Radar Cross Section
13.562 m², Large (>1 m²)

Expand to show TLE details & history
Last TLE update: 11 months ago

TLE from 11 months ago
0 STARLINK-2020
1 47642U 21012Y   25003.58833707  .11739929  12323-4  10147-2 0  9991
2 47642  53.0264 175.3671 0006121 270.7667 208.5146 16.38527497215017
Epoch: 2025-01-03T14:07Z
TLE epoch observation values (Epoch: 2025-01-03T14:07:12.322Z)
Latitude
44.33783°
Longitude
-6.88895°
Altitude
177.734 km
Speed
7.803 km/s
True Right ascension
20h 33m 27s
True Declination
44° 09' 02"
Sunlit
Object was in daylight at epoch
Visualization orbit readout
Latitude
Unknown
Longitude
Unknown
Altitude
Unknown
Speed
Unknown
Apparent Right ascension
Unknown
Apparent Declination
Unknown
Sunlit
N/A
Visualization observer readout
Local Sidereal Time
11:56:07
Azimuth
Unknown
Elevation
Unknown
Doppler factor
Unknown
Orbital elements
Apogee altitude
174.021 km
Perigee altitude
166.005 km
Semi-major axis
6,548.15 km
Eccentricity
0.00061
Inclination
53.0264°
RAAN
175.3671°
Arg. of periapsis
270.7667°
True anomaly
208.48114°
Mean anomaly
208.5146°
Eccentric anomaly
208.49787°
Mean motion
4.09605 °/min
Orbital period
87.89 mins
BSTAR
0.0010147
Loading maneuver chart data...
Computing Atmospheric mass density...
Loading historical data...
Loading historical data...
Loading historical data...
Loading historical data...
Loading historical data...
Loading historical data...
Loading historical data...

Documentation

Showing up to 5 results
|